Preview of NWS' New Version of Forecast
This preview is not operational and should not be used for support decisions.

Regional Weather Roundup (RWR)

Issued by Philadelphia/Mt Holly (PHI)

                            
000
ASUS41 KPHI 222213
RWRPHI

REGIONAL WEATHER ROUNDUP
NATIONAL WEATHER SERVICE MOUNT HOLLY NJ
600 PM EDT FRI MAR 22 2019

NOTE:  "FAIR" INDICATES FEW OR NO CLOUDS BELOW 12,000 FEET WITH NO
SIGNIFICANT WEATHER AND/OR OBSTRUCTIONS TO VISIBILITY.

 * = STATION DOES NOT REPORT PRECIPITATION (E.G. RAIN, SNOW, ETC.) 
        OR FOG.

NJZ015>026-222300-
SOUTHERN NEW JERSEY
  
CITY           SKY/WX    TMP DP  RH WIND       PRES   REMARKS
POMONA         FAIR      51  29  42 W17G33    29.50R                  
WILDWOOD*      PTSUNNY   47  36  65 W12G25    29.55R                  
MILLVILLE      FAIR      47  34  60 W15       29.52S                  
MOUNT HOLLY    PTSUNNY   49  28  44 W24G33    29.49R                  
TRENTON        PTSUNNY   45  31  58 W21G35    29.47R                  

$$
NJZ001>014-222300-
NORTHERN NEW JERSEY
  
CITY           SKY/WX    TMP DP  RH WIND       PRES   REMARKS
SUSSEX         CLOUDY    46  27  47 W12G29    29.41R                  
ANDOVER*         N/A     42  29  59 N14G31    29.44R                  
MORRISTOWN     PTSUNNY   46  32  57 NW12G31   29.43R                  
NEWARK         PTSUNNY   49  27  42 W21       29.41R                  
TETERBORO      FAIR      48  27  44 W20G33    29.39R                  
CALDWELL       PTSUNNY   47  28  47 W15G22    29.41R                  
SOMERVILLE     CLOUDY    47  30  51 VRB7      29.42R                  
ALLAIRE*       PTSUNNY   48  29  47 W14G23    29.45R                  
TOMS RIVER*    PTSUNNY   50  31  48 W17G24    29.47R                  

$$
PAZ043-044-047-054-055-060>062-066>071-222300-
EASTERN PENNSYLVANIA
  
CITY           SKY/WX    TMP DP  RH WIND       PRES   REMARKS
PHILADELPHIA   PTSUNNY   50  30  46 W22G31    29.51R                  
NORTH PHILA    LGT RAIN  44  35  70 NW17G35   29.53R                  
BLUE BELL*     CLOUDY    39  36  87 NW16G25   29.53R WCI  30          
DOYLESTOWN     LGT RAIN  41  33  73 W9G26     29.48R                  
QUAKERTOWN*    SUNNY     41  34  75 SW12G18   29.49R                  
PERKASIE*      MOCLDY    39  34  81 W14G21    29.49S WCI  31          
POTTSTOWN      CLOUDY    39  35  86 W9G18     29.54R WCI  33          
LANCASTER      CLOUDY    41  33  73 NW15      29.56R                  
COATESVILLE    PTSUNNY   43  32  65 NW30G44   29.55R                  
READING        LGT RAIN  39  36  89 NW21G33   29.54R FOG     WCI  29  
ALLENTOWN      LGT RAIN  40  33  76 W14G24    29.50R WCI  32          
MOUNT POCONO   PTSUNNY   33  30  88 W18G35    29.41S WCI  22          
HAZLETON       CLOUDY    36  30  80 W9        29.50R WCI  29          
LEHIGHTON      CLOUDY    39  32  75 W6        29.51R WCI  35          
WILKES BARRE   PTSUNNY   40  31  70 NW12G21   29.47R WCI  33          

$$
DEZALL-MDZ008-012-015-019-020-222300-
DELAWARE AND EASTERN MARYLAND
  
CITY           SKY/WX    TMP DP  RH WIND       PRES   REMARKS
WILMINGTON     CLOUDY    48  30  49 W24G35    29.55R                  
DOVER          FAIR      49  33  53 W17G24    29.55S                  
GEORGETOWN     CLOUDY    50  33  52 W15G29    29.59R                  
EASTON         PTSUNNY   45  39  81 W9        29.66R                  
ABERDEEN       PTSUNNY   48  36  61 W14G28    29.57R                  
PATUXENT       LGT RAIN  43  38  82 W30G38    29.67                   
OCEAN CITY     CLOUDY    48  35  60 NW18G41   29.61R                  
WALLOPS ISLAND CLOUDY    53  32  44 NW21G36   29.63R                  
CAMBRIDGE      PTSUNNY   41  37  87 W7G13     29.65F                  
SALISBURY      LGT RAIN  46  39  76 W13G20    29.64R                  

$$
PAZ001-021-NYZ056-072-MDZ011-DCZ001-222300-
OTHER NEARBY LOCATIONS
  
CITY           SKY/WX    TMP DP  RH WIND       PRES   REMARKS
HARRISBURG     FAIR      46  26  45 NW31G43   29.57S                  
STATE COLLEGE  PTSUNNY   37  27  65 W25G35    29.63R WCI  26          
WILLIAMSPORT   CLOUDY    42  28  57 NW25G35   29.56R                  
BINGHAMTON     CLOUDY    35  29  78 NW15G24   29.44R WCI  25          
NEW YORK CITY  PTSUNNY   48  26  42 NW10G22   29.41R                  
BALTIMORE      PTSUNNY   45  30  55 W21G35    29.63R                  
WASHINGTON DC  LGT RAIN  47  36  65 NW17G25   29.67R                  

$$